Regional Weather Roundup
Issued by NWS Newport/Morehead, NC

Home | Current Version | Previous Version | Text Only | Print | Product List | Glossary On
Versions: 1 2 3 4 5 6 7 8 9 10 11 12 13 14 15 16 17 18 19 20 21 22 23 24 25 26 27 28 29 30 31 32 33 34 35 36 37 38 39 40 41 42 43 44 45 46 47 48 49 50
000
ASUS42 KMHX 231626
RWRMHX
WEATHER ROUNDUP FOR EASTERN NORTH CAROLINA
NATIONAL WEATHER SERVICE NEWPORT/MOREHEAD CITY NC
1200 PM EDT WED AUG 23 2017

NOTE: "FAIR" INDICATES FEW OR NO CLOUDS BELOW 12,000 FEET
WITH NO SIGNIFICANT WEATHER AND/OR OBSTRUCTIONS TO VISIBILITY

NCZ015>017-031-032-045>047-102-103-231700-
NORTH COAST

CITY           SKY/WX    TMP DP  RH WIND       PRES   REMARKS
EDENTON        PTSUNNY   87  77  72 CALM      29.88F
ELIZABETH CITY PTSUNNY   86  78  77 SW5       29.87F
KITTY HAWK     SUNNY     88  73  62 CALM      29.86F
MANTEO         SUNNY     88  76  66 SW5       29.88S

$$

NCZ045>047-081-094-103-104-231700-
CENTRAL COAST

CITY           SKY/WX    TMP DP  RH WIND       PRES   REMARKS
FRISCO         MOSUNNY   87  79  76 SW10      29.90F HX 101

$$

NCZ095-097-098-100-101-231700-
SOUTHERN COAST

CITY           SKY/WX    TMP DP  RH WIND       PRES   REMARKS
BEAUFORT       MOSUNNY   86  79  79 SW17      29.91S
CEDAR ISLAND   NOT AVBL
JACKSONVILLE   MOSUNNY   88  76  67 W6        29.89F
PINEY ISLAND   MOSUNNY  N/A N/A N/A SW9       29.89F
WILMINGTON     MOSUNNY   89  74  60 S9        29.91S


$$

NCZ011>013-027>030-043-044-078>080-089-090>093-098-231700-
COASTAL PLAIN

CITY           SKY/WX    TMP DP  RH WIND       PRES   REMARKS
AHOSKIE          N/A     86  76  71 CALM      29.87F
CLINTON        MOSUNNY   89  78  68 SW3       29.90F HX 103
ELIZABETHTOWN  NOT AVBL
GOLDSBORO      MOSUNNY   88  81  79 W6        29.88F HX 105
GREENVILLE     SUNNY     88  77  70 W5        29.90F HX 100
HAVELOCK       SUNNY     90  75  61 W7        29.90F HX 100
KENANSVILLE    SUNNY     90  75  62 S3        29.89F HX 100
KINSTON        MOSUNNY   90  75  62 SW9       29.90S HX 100
NEW BERN       MOSUNNY   89  77  67 W6        29.90F HX 101
RICHLANDS      SUNNY     89  77  67 SW8       29.90F HX 101
ROCKY MOUNT    SUNNY     88  75  65 CALM      29.88S
WASHINGTON     MOSUNNY   88  76  67 W7        29.88F
WHITEVILLE     SUNNY     88  75  64 S8        29.90F

$$

AMZ130-135-150-152-154-156-158-170-250-252-270-ANZ085-086-088-633-658-670-231700-
MARINE OBSERVATIONS

STATION/POSITION TIME  TEMP    WIND        PRES    WAVE   SWELL
                       AIR SEA DIR/SP/G            HT/PER HT/PER
                 (UTC) (F)     (DEG/KT/KT) (MB)    (FT/S) (FT/S)
CHESAPEAKE LIGHT NOT AVBL
64 E VA BEACH    1550   79 79  230/  8/ 10 1012.1    4/ 9   3/ 9
DUCK             1600   84 66  250/  7/ 11 1011.1
2 E DUCK         1600      71                N/A     2/ 9
OREGON INLET     1600   83 84  190/ 14/ 16 1011.7
13E OREGON INLT  1548      80                N/A     3/ 9   2/ 9
HATTERAS CG      1600   83 82  220/ 10/ 13 1012.5
DIAMOND BUOY     1550   83 84  220/ 14/ 16 1012.5    4/ 5   2/ 8
CAPE LOOKOUT     1600   83     240/ 11/ 15 1012.5
BEAUFORT LAB     1600   85 80  220/  8/ 12 1012.2
30 SE NEW RVR IN 1608   81 84  240/ 16/ 19 1013.2
30 SE NEW RVR IN 1613      84                N/A     4/ 9   2/11
27 SE WRIGHTSVLE 1608   82 84  210/ 14/ 19 1013.2
5 SE WRIGHTSVLE  1608   83 84  210/ 12/ 19 1013.0
225 S CAPE HAT   1550   83 85  280/  4/  6 1015.4    3/ 9   3/ 9
41 SE CHARLESTON 1610   83 84  240/  6/  8 1013.8

$$




USA.gov is the U.S. government's official web portal to all federal, state and local government web resources and services.